Volver al catálogo

TITAN 3C TRANSTAGE DEB

LostHEO
NORAD 26778·DEBRIS·🇺🇸 United States

Lanzado Dec 21, 1965 desde Cape Canaveral Space Force Station

Loading…

Próximos Pases (próximas 24 horas)

TLE

ObsoletoSource: Space-Track

Época: Jul 8, 2026, 14:24 UTC

1 26778U 65108AW  26189.60063098 -.00000375  00000-0 -56303-2 0  9994
2 26778  27.9148  65.7028 6771023 249.1298 345.1016  2.65397592113421

Sigue TITAN 3C TRANSTAGE DEB en tiempo real con AllMySat

Download on the App Store